Wind_Speed
16 14 14 16 18 18 17 16 13 13 13 11 10 9 7 8 8 7 6 7 7 9 11 12 13 14 14 16 18 19 20 22 22 23 24 27 25 25 23 22 21 21 19
23 20 17 15 18 19 19 20 16 12 14 13 13 11 11 10 10 8 8 7 7 7 7 7 8 9 10 12 14 16 17 19 20 21 19 20 20 21 21 20 20 19 19
29 27 24 23 19 20 21 22 19 16 14 14 16 14 12 13 11 11 9 8 9 8 9 10 8 7 8 8 8 10 13 13 13 13 14 16 17 18 18 19 18 18 18
37 37 33 28 25 23 22 24 23 21 19 18 15 15 15 14 13 12 11 11 11 11 10 9 9 10 10 10 10 10 11 12 14 14 16 16 16 17 18 19 18 18 18
35 37 35 37 34 28 25 22 24 23 21 21 21 20 19 17 18 14 14 14 15 15 14 13 13 12 13 14 13 14 14 14 15 16 16 17 16 18 22 22 23 22 20
27 35 43 32 42 35 32 27 25 24 22 21 21 20 21 21 17 18 16 16 16 17 17 16 16 17 16 16 16 15 15 16 16 17 18 19 20 21 24 25 26 27 26
10 16 27 31 29 44 34 27 23 23 23 22 21 21 20 20 19 18 17 17 17 16 17 17 18 18 16 16 17 17 18 19 20 20 20 21 22 22 24 25 26 28 28
9 6 4 6 6 17 30 31 26 24 24 24 22 20 18 18 19 19 19 20 20 20 20 20 20 20 20 20 21 20 21 22 24 24 25 25 26 26 27 28 29 28 27
17 15 11 11 14 12 11 18 25 20 33 27 22 19 15 18 22 23 22 22 22 23 23 24 24 24 23 22 24 24 23 25 26 25 25 27 29 30 32 32 31 31 29
22 20 16 15 12 11 14 17 19 20 22 30 32 26 25 18 16 30 24 23 23 23 24 24 25 26 27 27 25 26 27 28 28 29 29 29 31 32 33 34 31 30 30
23 22 23 20 17 13 12 13 10 12 16 18 21 23 36 27 26 27 33 25 23 22 22 25 27 29 29 29 29 27 25 27 30 31 31 30 30 30 29 32 31 31 31
19 17 18 21 22 19 16 16 15 15 17 20 19 22 23 22 23 24 34 29 23 22 26 32 32 31 35 34 35 35 33 28 30 32 32 32 33 33 33 31 31 32 32
15 15 14 16 16 16 17 15 15 15 16 17 18 20 21 20 18 15 19 22 24 27 28 29 35 29 30 33 32 33 36 37 35 34 31 32 32 32 32 32 32 31 32
15 16 16 17 17 18 19 19 19 19 19 21 22 23 23 22 21 20 26 27 29 32 32 33 33 32 33 32 31 31 32 35 40 39 36 34 34 35 36 37 36 36 35
16 17 17 18 18 19 19 19 20 21 22 23 23 23 22 22 24 25 26 28 30 31 31 31 31 30 30 29 29 30 31 31 33 33 33 34 34 34 35 37 37 38 38
13 14 15 16 18 19 19 20 21 22 22 23 23 22 22 23 23 22 23 24 24 24 24 25 26 27 28 27 28 29 30 31 32 33 34 34 35 36 36 36 37 37 38
13 14 16 17 18 18 18 18 18 19 20 21 20 20 20 20 20 21 21 20 21 23 25 26 27 28 30 31 32 33 35 36 35 35 36 37 38 38 39 40 41 43 43
14 14 15 15 16 16 16 16 16 18 18 18 18 19 19 19 20 21 22 23 24 26 27 28 29 30 32 33 34 35 36 37 38 40 41 42 44 44 44 45 46 47 47
14 14 14 14 14 14 14 16 16 16 17 18 19 19 19 20 21 23 24 25 26 28 29 31 31 33 34 35 37 38 39 41 42 44 45 46 48 50 51 52 52 52 53
15 14 15 15 15 16 17 17 18 19 19 19 19 20 21 22 23 24 25 26 27 28 29 30 31 32 34 36 38 40 42 44 45 47 48 50 52 53 55 56 57 58 59
15 16 16 17 18 19 19 20 20 19 19 20 21 21 22 24 25 26 27 27 27 28 29 29 30 33 35 37 39 41 44 47 48 49 51 54 57 59 60 61 62 63 63
18 19 20 21 21 21 20 19 19 20 21 21 23 23 25 26 27 27 28 29 29 29 30 31 33 35 38 41 42 44 46 49 51 54 57 60 61 61 62 64 64 65 65
19 19 20 21 22 22 21 21 21 21 21 22 23 24 24 24 25 26 27 28 29 29 31 33 35 37 39 41 43 47 51 54 56 58 59 60 60 60 60 61 62 63 64
21 22 22 22 22 23 23 23 22 22 21 22 22 23 23 24 25 26 26 27 29 31 33 34 37 39 41 43 45 48 52 55 56 57 58 59 60 60 59 57 56 55 57
32 28 28 27 27 26 26 25 25 24 23 23 24 25 25 26 26 26 27 28 30 31 34 35 37 39 40 41 43 45 49 51 53 54 55 55 55 54 53 53 52 52 52
41 40 37 36 34 31 29 28 27 28 27 26 26 26 26 25 26 26 27 28 30 31 33 36 37 39 40 41 42 44 46 47 48 48 48 46 44 43 42 42 42 42 42
Wind_Direction
222 224 221 223 228 223 216 212 216 222 214 217 209 206 209 206 204 207 215 226 232 243 251 247 246 249 255 258 260 261 264 270 272 273 287 297 305 304 311 319 327 330 338
233 233 232 234 235 233 230 220 222 219 220 212 223 227 224 217 217 217 220 226 238 250 252 254 261 263 264 274 281 280 278 279 279 283 289 298 305 311 318 327 334 336 339
236 240 243 240 238 238 238 234 226 224 223 226 234 231 232 226 237 243 232 232 237 244 252 259 257 262 271 281 286 295 303 307 300 297 301 305 310 314 319 327 331 337 338
242 248 241 240 239 240 238 238 230 232 232 232 231 234 235 236 239 238 248 257 258 253 253 260 266 271 269 268 271 277 286 296 300 302 309 312 313 315 318 323 325 325 325
244 243 241 241 242 243 246 240 235 229 234 236 237 235 237 238 241 245 254 261 254 257 261 257 258 265 274 276 279 285 292 293 298 300 304 309 309 307 314 317 319 323 326
243 232 236 239 242 237 247 235 230 232 240 239 240 243 242 242 247 251 259 261 256 254 264 267 268 266 268 274 281 285 288 291 291 294 298 302 305 309 311 315 315 317 319
203 237 234 244 233 236 243 222 226 233 239 241 242 245 248 247 250 251 250 254 256 258 262 265 269 277 279 281 283 286 290 291 291 291 294 297 299 302 302 305 307 310 314
199 213 171 184 199 227 236 237 233 238 240 239 243 244 250 255 253 250 252 251 255 258 259 262 265 269 271 275 280 282 284 285 285 290 295 297 298 299 299 303 306 309 312
202 208 221 222 230 234 203 216 229 247 238 237 235 231 245 253 257 255 255 258 258 259 261 264 268 272 276 279 279 281 282 280 281 284 288 292 297 299 300 301 305 305 308
217 218 220 223 226 240 239 231 234 239 235 232 236 240 263 261 284 253 250 251 254 257 260 264 268 273 276 277 278 282 284 283 282 284 286 288 292 296 297 296 299 300 301
213 219 225 226 228 224 220 225 224 228 236 238 243 241 247 270 280 273 241 240 249 254 265 273 276 277 277 278 278 280 292 287 284 282 284 285 288 291 294 298 298 295 295
219 226 227 230 231 229 234 238 244 253 252 248 250 243 259 276 285 287 233 230 249 265 266 278 280 286 274 278 283 281 285 299 295 288 285 285 286 287 288 288 289 290 292
193 203 201 203 215 219 228 232 234 239 243 242 247 254 266 277 289 284 234 247 271 279 279 272 278 283 281 277 280 282 278 280 291 290 287 287 287 287 287 286 286 286 287
202 205 209 214 219 226 233 238 242 246 249 251 251 256 262 267 269 265 258 270 272 272 277 278 281 283 282 285 286 283 283 279 279 284 285 285 285 286 286 286 287 287 287
224 227 228 229 231 233 237 244 248 251 255 259 261 263 265 265 266 267 266 267 271 276 280 282 284 286 287 287 287 286 286 284 282 286 286 288 289 288 288 288 289 288 289
232 235 238 239 242 244 245 246 249 252 254 258 261 263 266 268 269 267 267 270 273 274 276 279 281 282 283 284 285 286 287 287 288 288 290 290 290 291 291 292 291 292 292
249 248 246 245 246 247 248 249 252 254 256 259 260 262 263 264 266 269 273 274 272 273 275 278 280 281 282 284 285 284 284 284 285 286 286 286 286 286 287 287 288 290 290
254 251 248 247 248 249 250 250 251 251 252 254 256 259 261 264 267 270 273 275 279 282 284 285 284 284 284 286 288 289 290 289 288 288 288 288 287 287 287 286 286 286 285
249 255 254 249 249 248 250 252 254 256 258 260 261 265 270 274 277 280 282 283 283 284 286 288 290 291 292 293 294 293 293 293 293 292 292 292 292 290 289 287 286 285 285
255 254 257 258 257 259 260 261 262 262 264 267 271 275 278 281 285 288 291 292 292 293 292 291 291 292 292 292 292 293 293 294 294 293 292 291 290 290 290 288 287 286 284
252 251 250 252 255 257 259 261 263 266 270 274 277 282 286 289 291 291 292 292 292 292 292 293 294 295 296 298 298 298 298 297 296 295 296 298 298 296 294 293 291 289 286
250 252 252 252 253 255 258 262 265 269 273 276 280 283 287 289 290 291 292 293 294 296 298 300 301 302 302 302 302 301 301 302 299 297 298 300 299 298 296 295 295 294 293
255 255 257 260 262 263 262 263 265 268 271 275 280 285 288 290 292 294 295 297 299 300 300 301 303 304 305 306 308 310 310 310 308 307 305 303 300 297 294 293 292 291 290
261 260 258 258 258 260 261 262 263 266 272 279 283 287 290 292 294 296 298 300 302 305 307 308 308 308 307 308 309 309 310 310 309 308 305 303 301 300 298 296 295 293 291
264 265 263 262 260 258 261 261 263 265 269 274 280 284 287 290 294 298 300 301 303 306 307 308 307 306 306 305 305 306 309 310 309 308 306 303 302 300 298 297 297 296 296
256 258 260 264 262 262 263 263 262 264 267 272 277 281 284 287 289 294 297 298 301 304 306 307 306 306 305 305 307 311 312 312 312 310 307 304 301 298 297 296 297 297 299
Height
3225 3226 3228 3230 3232 3234 3235 3237 3240 3242 3243 3246 3247 3247 3249 3249 3250 3251 3252 3252 3253 3254 3255 3256 3257 3258 3259 3259 3260 3260 3261 3261 3260 3260 3258 3256 3253 3250 3248 3246 3244 3240 3238
3222 3224 3226 3227 3229 3231 3233 3235 3237 3240 3242 3244 3246 3246 3248 3249 3249 3249 3250 3251 3252 3252 3253 3253 3254 3255 3255 3256 3257 3257 3257 3256 3256 3255 3254 3253 3250 3247 3245 3243 3241 3239 3237
3217 3220 3222 3223 3225 3227 3230 3232 3234 3237 3240 3242 3242 3244 3246 3246 3247 3248 3248 3249 3250 3250 3252 3252 3252 3252 3253 3253 3254 3254 3254 3253 3252 3251 3251 3249 3246 3244 3242 3240 3239 3237 3236
3210 3214 3216 3219 3220 3222 3225 3227 3231 3233 3236 3238 3241 3242 3243 3244 3245 3246 3247 3248 3248 3248 3249 3250 3250 3251 3250 3250 3251 3251 3251 3251 3250 3249 3247 3247 3246 3244 3241 3239 3237 3236 3234
3204 3206 3209 3211 3214 3217 3220 3223 3226 3229 3231 3234 3236 3239 3240 3241 3242 3243 3244 3245 3246 3246 3246 3246 3247 3247 3248 3248 3248 3248 3248 3247 3247 3246 3245 3244 3243 3241 3239 3237 3234 3233 3232
3192 3194 3199 3203 3207 3211 3214 3217 3221 3224 3227 3229 3231 3233 3235 3236 3238 3240 3240 3241 3242 3242 3243 3243 3243 3243 3244 3245 3245 3244 3244 3244 3244 3242 3242 3240 3239 3237 3236 3234 3231 3230 3228
3190 3190 3193 3197 3197 3201 3207 3210 3215 3219 3221 3224 3226 3228 3231 3232 3234 3235 3237 3237 3238 3238 3239 3240 3241 3240 3241 3241 3241 3241 3241 3240 3239 3238 3237 3236 3235 3234 3232 3230 3228 3226 3225
3190 3191 3192 3193 3195 3195 3198 3205 3209 3213 3216 3218 3221 3223 3225 3227 3229 3230 3232 3232 3233 3234 3235 3236 3236 3237 3237 3237 3237 3236 3236 3235 3234 3234 3233 3233 3231 3229 3227 3226 3223 3221 3220
3189 3191 3193 3194 3194 3197 3199 3202 3205 3207 3209 3214 3216 3217 3220 3222 3224 3225 3226 3227 3228 3229 3229 3230 3231 3232 3233 3233 3232 3231 3231 3230 3229 3228 3227 3226 3225 3223 3220 3219 3218 3215 3214
3185 3188 3190 3192 3194 3195 3195 3198 3200 3201 3203 3206 3211 3212 3214 3217 3217 3219 3219 3221 3222 3223 3223 3224 3225 3226 3227 3226 3227 3226 3225 3224 3224 3222 3220 3219 3218 3217 3215 3212 3211 3210 3209
3180 3183 3186 3189 3192 3194 3195 3198 3197 3199 3200 3203 3205 3206 3210 3209 3211 3211 3212 3214 3216 3217 3217 3218 3218 3218 3218 3219 3219 3219 3218 3217 3216 3215 3214 3213 3210 3209 3207 3205 3205 3202 3201
3178 3180 3182 3185 3188 3191 3193 3194 3195 3196 3197 3198 3200 3203 3204 3205 3203 3201 3201 3206 3209 3210 3210 3211 3211 3210 3210 3210 3210 3210 3210 3209 3208 3207 3205 3203 3203 3201 3199 3198 3197 3196 3194
3173 3176 3178 3181 3183 3186 3188 3190 3192 3193 3194 3195 3196 3197 3198 3199 3198 3197 3198 3201 3203 3204 3204 3204 3205 3204 3203 3202 3201 3201 3200 3200 3201 3200 3198 3196 3194 3192 3191 3190 3189 3188 3187
3172 3173 3175 3178 3180 3183 3184 3186 3187 3188 3190 3192 3192 3192 3193 3193 3194 3194 3195 3196 3197 3197 3198 3197 3196 3196 3195 3194 3194 3192 3191 3189 3191 3189 3188 3186 3185 3184 3182 3181 3180 3179 3178
3168 3170 3172 3174 3175 3177 3179 3181 3182 3182 3183 3185 3185 3186 3187 3187 3188 3189 3190 3189 3189 3189 3188 3187 3187 3187 3186 3185 3185 3184 3184 3183 3181 3180 3178 3176 3175 3174 3172 3170 3170 3168 3167
3164 3165 3167 3168 3170 3171 3172 3174 3175 3176 3176 3177 3178 3178 3179 3179 3180 3181 3182 3182 3182 3181 3181 3180 3181 3180 3180 3179 3178 3176 3175 3175 3173 3171 3170 3168 3166 3164 3163 3162 3159 3158 3157
3159 3160 3162 3163 3164 3165 3165 3167 3168 3169 3170 3171 3171 3172 3173 3174 3174 3175 3175 3175 3175 3176 3175 3174 3173 3172 3172 3171 3170 3168 3167 3164 3163 3162 3160 3158 3157 3156 3154 3152 3149 3147 3146
3154 3156 3157 3158 3159 3160 3161 3162 3162 3164 3164 3165 3165 3166 3167 3167 3168 3169 3169 3169 3169 3168 3167 3165 3164 3163 3162 3161 3158 3157 3156 3154 3152 3150 3148 3146 3144 3144 3143 3141 3139 3136 3134
3148 3150 3151 3152 3154 3156 3156 3157 3157 3157 3158 3159 3160 3161 3161 3161 3162 3162 3161 3161 3161 3160 3158 3157 3155 3153 3152 3150 3147 3146 3145 3143 3140 3137 3135 3133 3130 3127 3127 3126 3124 3122 3120
3141 3143 3144 3146 3148 3150 3151 3151 3152 3153 3153 3154 3154 3155 3155 3155 3155 3154 3154 3153 3152 3151 3151 3149 3147 3144 3142 3140 3138 3137 3134 3132 3129 3125 3122 3119 3116 3114 3111 3108 3106 3105 3102
3136 3138 3140 3141 3143 3145 3145 3146 3147 3147 3147 3147 3147 3147 3147 3147 3146 3146 3146 3145 3144 3143 3141 3139 3137 3135 3132 3130 3127 3124 3121 3118 3114 3109 3106 3103 3099 3096 3092 3089 3086 3083 3083
3131 3133 3134 3135 3136 3137 3138 3139 3139 3140 3140 3140 3140 3141 3140 3140 3138 3138 3137 3136 3135 3133 3131 3129 3126 3123 3120 3117 3114 3111 3107 3103 3099 3095 3091 3087 3082 3078 3073 3069 3065 3061 3058
3124 3125 3126 3128 3129 3130 3131 3131 3132 3132 3133 3133 3133 3132 3132 3132 3131 3130 3129 3127 3125 3123 3121 3118 3115 3112 3108 3104 3100 3095 3090 3085 3081 3076 3071 3068 3064 3060 3056 3052 3048 3045 3042
3118 3119 3120 3121 3122 3122 3123 3124 3124 3125 3125 3125 3125 3125 3124 3123 3123 3122 3121 3119 3117 3114 3111 3107 3104 3100 3096 3092 3087 3083 3078 3072 3066 3061 3056 3051 3045 3040 3035 3031 3028 3025 3022
3111 3112 3113 3114 3114 3115 3116 3117 3117 3117 3117 3118 3118 3117 3117 3116 3115 3114 3112 3111 3109 3106 3103 3099 3095 3092 3088 3084 3079 3074 3068 3062 3056 3049 3043 3037 3031 3026 3021 3016 3011 3008 3005
3102 3102 3103 3104 3105 3106 3108 3109 3110 3110 3109 3109 3110 3110 3111 3110 3108 3107 3105 3103 3101 3097 3093 3090 3087 3083 3078 3073 3068 3062 3056 3051 3044 3038 3032 3026 3020 3015 3009 3005 3001 2996 2993